GFSFLT2_925_thetae_168.txt.gz
Theta_e
308 306 306 307 305 301 301 299 299 296 293 297 297 298 298 298 297 298 299 301 301 302 302 303 303 303 304
306 305 303 305 302 301 299 297 296 294 292 292 293 297 297 297 296 296 295 297 299 300 300 300 300 300 300
304 303 302 302 301 300 299 297 295 294 292 291 296 296 296 295 294 293 294 296 296 295 295 295 296 296 296
299 299 299 299 297 298 299 296 296 293 291 291 294 295 293 292 291 290 292 295 295 295 294 293 293 294 294
296 296 296 296 296 297 295 296 294 292 292 291 291 291 291 290 289 288 291 294 293 293 293 291 291 291 292
295 295 295 294 294 294 294 294 295 291 291 292 290 292 291 289 289 290 293 293 292 290 288 288 288 288 289
295 295 294 293 293 293 293 293 293 291 289 291 290 290 291 288 289 293 292 291 291 288 287 287 287 288 290
296 295 294 292 291 292 292 292 291 290 288 291 290 290 290 289 288 292 291 291 290 288 287 286 287 288 288
296 295 294 291 290 291 291 291 292 291 289 290 291 290 288 289 290 291 291 290 289 287 288 287 285 287 288
294 294 293 292 290 290 291 291 292 291 290 290 289 288 291 287 287 290 289 289 288 288 288 285 285 286 287
294 294 293 292 291 291 289 289 290 290 288 287 286 287 287 289 286 286 288 287 287 286 285 284 284 285 286
294 293 293 292 291 290 289 287 287 286 286 285 286 287 288 288 289 286 285 284 284 284 284 284 284 284 284
294 293 292 291 290 289 288 286 286 285 285 285 285 285 284 287 288 287 285 286 284 284 284 284 283 284 283
294 294 292 290 289 288 287 285 285 286 285 284 284 284 284 284 285 285 286 286 284 284 283 283 283 283 283
294 293 291 290 288 288 287 286 286 287 286 284 284 283 282 283 285 285 285 285 284 283 282 283 282 283 283
293 292 290 290 289 287 287 286 287 287 286 285 283 283 283 283 283 284 284 284 283 282 282 282 282 283 284
292 291 291 290 289 288 287 287 287 287 286 285 284 284 286 288 285 284 284 284 283 282 282 282 282 283 283

GFSFLT2_925_thetae_171.txt.gz
Theta_e
306 307 306 305 306 305 303 301 301 300 296 294 296 296 296 296 295 294 298 301 303 304 305 305 304 305 305
305 305 306 303 305 303 302 299 298 297 296 292 292 297 296 296 294 292 294 299 300 300 300 300 301 301 301
303 303 304 303 303 301 301 300 298 297 296 293 295 296 296 295 293 292 295 297 296 295 295 296 296 297 297
301 301 300 299 299 298 297 299 298 296 296 293 294 295 294 292 291 290 294 296 295 295 294 293 293 294 295
299 298 297 296 297 297 297 295 296 295 293 293 291 291 291 291 290 289 290 294 294 294 293 290 289 289 289
297 297 296 296 295 295 295 295 295 294 292 292 293 292 292 291 290 289 290 293 293 292 289 288 288 288 288
298 297 296 296 294 294 294 294 294 294 291 291 292 291 292 292 290 289 293 293 292 291 288 287 287 287 287
298 297 296 295 293 292 292 293 293 293 291 291 292 291 291 291 289 289 293 292 291 290 288 287 287 286 287
299 298 297 296 294 292 291 291 292 293 291 290 292 290 290 289 289 289 292 292 291 289 288 288 288 286 286
296 296 295 296 295 293 291 292 292 292 291 289 291 289 291 289 288 290 291 290 290 289 289 289 287 285 286
297 296 295 294 293 292 291 291 292 292 291 288 288 288 287 289 288 287 290 290 289 288 288 286 285 285 285
296 295 295 294 293 292 292 291 290 290 289 288 287 287 288 289 289 288 286 285 286 285 285 285 285 285 285
296 295 295 294 293 292 291 290 289 287 286 286 286 285 285 287 288 287 286 287 286 285 284 284 284 284 284
296 296 295 294 292 291 289 288 286 286 286 285 285 285 285 285 285 286 286 286 286 284 284 284 284 284 283
294 294 294 293 292 290 289 287 286 288 286 286 285 285 284 284 285 285 285 286 286 285 285 283 283 284 284
293 292 292 291 290 290 289 288 287 288 288 286 284 283 283 284 284 284 285 285 285 285 283 283 283 286 284
293 292 291 291 290 289 288 288 288 288 288 287 285 285 286 286 286 285 284 285 285 284 283 282 282 284 283

GFSFLT2_925_thetae_174.txt.gz
Theta_e
306 305 304 305 304 304 304 304 302 299 299 296 293 295 294 295 294 295 301 303 304 304 304 305 305 305 306
305 305 304 305 305 303 304 301 301 299 298 296 293 295 295 295 293 294 299 299 299 299 301 301 301 302 302
303 303 302 302 302 302 301 298 300 298 297 297 294 296 295 294 292 292 296 296 294 294 294 295 296 297 299
303 302 301 299 298 298 296 296 298 299 297 296 294 294 295 293 291 290 293 295 295 295 293 292 292 294 295
300 299 298 298 296 296 297 296 294 295 295 294 293 292 291 291 291 290 289 294 294 294 292 290 289 289 290
299 297 297 297 296 296 295 294 291 293 294 292 292 292 292 292 292 290 290 292 293 292 291 288 288 288 288
300 299 298 297 296 295 294 294 293 293 293 292 292 292 292 291 292 291 290 293 293 292 290 288 288 287 287
300 300 299 298 296 295 293 293 293 293 292 290 291 292 291 291 291 290 289 294 293 291 290 288 287 288 287
299 299 299 299 297 295 293 291 290 291 291 291 291 291 290 291 290 289 289 294 292 292 290 289 288 288 287
299 298 297 296 296 296 295 292 291 291 292 291 290 290 288 290 289 289 290 291 292 291 291 290 289 288 286
298 298 297 296 295 295 294 294 291 291 291 291 289 290 288 288 288 287 288 290 291 290 289 290 289 287 286
296 297 296 296 295 294 294 293 292 291 291 291 289 287 287 289 288 288 287 287 288 288 287 286 286 286 286
296 297 297 296 295 294 293 292 291 290 290 289 289 287 286 287 288 288 287 286 286 286 285 285 285 285 285
295 295 295 295 295 294 293 292 290 290 289 287 286 286 285 285 285 285 286 286 286 286 285 285 285 287 285
294 294 294 294 294 294 292 290 288 288 287 287 285 285 285 284 285 285 285 285 285 286 286 285 287 286 284
292 293 292 292 292 291 291 289 288 286 287 287 287 284 283 285 285 284 284 285 285 285 285 284 284 287 285
291 291 292 291 291 290 289 289 288 287 287 288 286 284 281 282 287 286 284 284 285 285 285 283 283 285 285

GFSFLT2_925_thetae_177.txt.gz
Theta_e
306 306 306 305 303 305 303 303 303 301 299 298 298 295 295 296 295 299 302 303 304 304 305 305 306 307 308
305 305 305 304 302 302 302 302 301 300 299 297 297 295 295 295 294 295 298 299 299 300 301 301 302 303 304
305 305 304 303 301 300 299 298 296 295 299 298 296 296 296 294 293 291 296 296 295 295 296 297 298 299 300
304 304 304 302 300 298 297 295 295 295 296 297 295 294 294 294 292 291 291 295 295 295 293 292 293 294 295
303 302 300 299 298 297 296 296 295 294 293 294 294 292 292 291 292 291 290 292 294 294 292 290 289 289 290
301 299 299 300 299 297 295 294 291 293 293 293 293 292 292 292 291 292 290 289 293 293 292 289 288 289 288
300 300 300 300 299 297 295 294 293 293 293 293 292 292 292 292 291 292 291 290 294 292 291 289 288 288 288
300 300 300 300 299 297 295 294 293 293 292 291 291 291 291 291 291 291 291 290 294 292 291 290 288 288 288
299 299 299 299 299 297 293 292 290 291 292 291 291 291 291 291 290 291 290 290 293 292 292 290 289 289 289
298 299 298 298 298 298 297 292 291 291 293 291 290 290 288 289 289 289 290 291 293 292 292 291 291 290 289
297 297 297 297 296 295 295 295 293 293 292 290 289 290 289 288 288 288 288 289 290 291 291 291 291 290 289
296 296 296 296 297 296 296 295 294 293 292 291 290 289 287 287 287 287 288 287 288 289 289 289 287 287 288
296 295 295 295 295 295 295 294 293 292 292 291 290 290 288 287 287 288 288 287 287 286 286 285 285 285 285
295 294 295 295 295 295 295 294 292 292 291 289 289 288 288 287 286 286 285 286 286 286 286 285 285 285 285
292 292 292 293 293 294 293 292 290 290 290 290 289 288 285 285 285 285 285 285 286 285 285 285 286 285 287
292 292 292 291 292 292 292 291 289 289 289 289 287 284 284 285 285 286 285 285 286 285 285 285 285 286 287
291 291 291 291 291 291 291 290 289 289 289 288 286 284 282 283 286 286 286 286 285 285 285 285 285 286 285

GFSFLT2_925_thetae_183.txt.gz
Theta_e
307 306 306 305 305 306 306 303 300 300 300 300 299 298 296 297 297 293 297 298 300 302 304 306 307 309 311
306 306 306 306 305 306 306 305 300 298 297 296 296 298 296 296 296 293 295 295 296 297 299 302 304 305 306
304 305 305 305 305 305 305 304 301 298 296 295 295 297 297 295 296 295 291 294 295 294 294 297 299 301 302
302 302 303 303 303 302 303 303 301 300 297 295 295 294 295 294 296 295 292 291 294 295 293 292 293 295 296
300 301 301 301 301 302 300 300 300 300 298 296 293 293 294 293 292 294 293 291 292 294 293 291 290 291 291
300 300 301 301 301 300 299 297 294 296 294 293 294 295 293 293 292 292 291 292 290 294 293 292 290 289 289
301 301 301 301 300 299 297 296 296 297 295 294 295 295 294 293 292 291 291 291 291 294 293 292 290 289 288
300 301 300 300 300 299 298 297 296 295 293 292 293 293 293 293 292 291 291 291 292 293 293 292 290 289 288
296 296 297 297 297 298 296 293 291 293 294 292 292 292 293 293 291 291 291 292 291 291 293 292 291 290 290
297 297 296 297 297 298 297 295 293 294 293 291 291 291 289 288 289 290 291 292 291 292 294 293 292 291 290
295 295 296 296 296 296 297 297 296 295 295 292 291 290 290 288 288 288 288 289 290 291 293 293 292 292 290
294 295 296 296 295 295 295 295 295 295 295 293 292 292 289 288 288 288 288 287 288 288 289 291 293 291 291
293 293 293 294 293 294 295 295 295 295 294 294 293 292 291 289 289 288 288 287 287 287 287 287 287 287 287
293 293 293 292 291 291 292 293 293 294 293 293 292 292 290 289 288 288 288 288 286 286 286 286 286 286 286
293 293 292 292 291 291 291 291 291 291 292 292 291 290 289 289 288 289 288 288 287 286 285 285 287 287 286
292 291 290 290 291 291 291 291 290 290 290 290 289 286 285 287 288 287 287 287 287 286 285 285 286 288 286
291 291 290 290 289 290 290 290 290 290 290 290 288 285 280 280 286 287 286 286 286 286 285 284 285 286 285

GFSFLT2_925_thetae_186.txt.gz
Theta_e
306 306 306 306 306 305 305 305 305 303 299 298 298 298 297 296 296 296 294 294 297 299 303 305 307 309 311
304 305 306 305 306 306 306 305 305 304 300 297 296 295 296 297 295 295 293 293 293 294 298 302 303 304 305
302 303 304 304 304 304 304 304 304 304 301 298 295 295 297 297 295 295 294 292 293 293 293 295 298 300 301
300 301 301 302 302 302 303 303 303 303 301 300 297 295 296 297 296 296 294 292 292 294 293 292 293 294 296
298 299 300 300 301 301 301 300 301 301 302 301 299 295 293 294 294 293 294 293 291 292 293 291 290 290 290
298 299 300 300 300 300 300 296 296 299 297 296 294 293 294 293 292 292 292 293 292 293 292 292 291 290 290
300 300 299 300 300 299 298 296 296 298 295 295 297 297 296 294 293 292 291 291 292 293 294 292 291 290 289
296 297 298 299 298 298 298 297 296 296 295 291 293 294 295 293 293 291 291 291 292 292 294 292 291 290 289
296 296 296 296 296 297 296 294 292 294 294 292 292 292 294 294 293 292 291 292 293 293 294 292 291 290 290
295 295 295 296 296 296 296 294 293 293 295 292 292 292 290 288 289 290 290 292 294 293 294 293 292 291 290
294 294 294 295 295 295 296 296 295 295 295 294 293 291 290 290 288 288 289 291 292 292 293 294 293 292 291
294 294 293 294 294 295 295 294 295 295 295 294 293 292 292 288 289 289 289 288 288 289 290 292 292 293 292
292 292 293 293 293 293 293 293 294 294 294 293 293 292 292 291 290 289 288 288 288 287 287 287 289 292 292
291 292 293 293 292 292 291 291 291 292 293 294 293 291 291 291 290 289 289 289 288 287 287 286 286 286 286
290 291 292 292 291 291 291 291 291 291 291 292 292 290 289 289 289 289 289 288 289 289 288 287 286 286 286
289 290 290 291 290 290 290 290 290 290 290 291 290 287 286 287 289 288 288 288 288 288 287 285 286 287 288
288 289 289 290 290 290 289 289 289 289 290 290 289 287 283 282 287 288 287 287 286 285 286 285 285 287 286